Simultaneous Nadir Overpasses (SNOs) Predictions

Prediction of SNOs between GOES-17 and METOP-C Satellite Orbit:

Table of predicted SNOs for the next 14.0 days since TLE Epoch: 2/24/2024
Index Date Time (GOES-17) GOES-17 Lat,Lon METOP-C Lat,Lon Distance(km) Time Diff (sec)
1 02/24/2024 04:22:26 0.00,-104.67 0.29,-103.28 158.23 4
2 02/25/2024 16:40:01 -0.00,-104.68 0.73,-107.84 360.79 80
3 02/26/2024 16:22:03 -0.00,-104.68 -0.42,-102.85 208.46 80
4 02/28/2024 04:41:04 0.00,-104.68 -0.60,-107.45 316.16 80
5 02/29/2024 04:17:45 0.00,-104.67 0.50,-102.46 252.76 80
6 03/01/2024 16:36:36 -0.01,-104.68 0.53,-107.01 266.80 80
7 03/02/2024 16:18:37 -0.01,-104.68 -0.57,-102.02 302.11 80
8 03/04/2024 04:37:38 0.02,-104.67 -0.43,-106.62 222.91 80
9 03/05/2024 04:14:18 0.02,-104.66 0.68,-101.63 345.51 80
10 03/06/2024 16:33:10 -0.02,-104.66 0.35,-106.19 175.07 80
11 03/07/2024 16:15:11 -0.02,-104.65 -0.82,-101.20 393.72 80
